Flag for U.S.A. Weather past 2 weeks in Bryan – College Station, Texas, U.S.A.

Now
48 °F

Clear.


Feels Like: 48 °F
Forecast: 41 / 70 °F
Wind: No wind

Location: Easterwood Field


UV Index: 7 (High)

Visibility: 10 mi


Pressure: 30.17 "Hg

Humidity: 68%

Dew point: 38 °F

Location of Bryan – College StationLocation

Historic Weather in Bryan – College Station

°F

Bryan – College Station temperature yesterday

Maximum temperature yesterday: 74 °F (at 12:53 AM)
Minimum temperature yesterday: 45 °F (at 12:53 PM)
Average temperature yesterday: 58 °F

Past Weeks' High & Low Weather Summary

 TemperatureHumidityPressure
High84 °F (Apr 1, 4:53 PM)97% (Apr 1, 8:53 AM)30.35 "Hg (Apr 1, 8:53 AM)
Low38 °F (Apr 15, 6:53 AM)20% (Apr 8, 4:53 PM)29.65 "Hg (Apr 13, 5:53 PM)
Average65 °F70%29.95 "Hg
* Reported Mar 31 9:53 PM — Apr 15 9:53 PM, Bryan – College Station, Weather by CustomWeather, © 2014

Note: Actual official high and low records may vary slightly from our data, if they occured in-between our weather recording intervals... More about our weather records

Advertising

Historic Weather Conditions — Data for Previous 24 hours

 ConditionsComfort  
Time TempWeatherWind HumidityBarometerVisibility
9:53 PM
Apr 15
51 °FClear.No wind59%30.18 "Hg10 mi
8:53 PM53 °FClear.No wind51%30.16 "Hg10 mi
7:53 PM57 °FSunny.5 mph34%30.16 "Hg10 mi
5:53 PM62 °FSunny.7 mph27%30.18 "Hg10 mi
4:53 PM62 °FSunny.No wind25%30.19 "Hg10 mi
3:53 PM61 °FSunny.12 mph29%30.22 "Hg10 mi
2:53 PM60 °FSunny.No wind30%30.24 "Hg10 mi
1:53 PM59 °FSunny.7 mph31%30.28 "Hg10 mi
12:53 PM57 °FSunny.7 mph32%30.31 "Hg10 mi
11:53 AM55 °FSunny.5 mph34%30.33 "Hg10 mi
10:53 AM52 °FSunny.10 mph37%30.34 "Hg10 mi
9:53 AM49 °FSunny.8 mph44%30.35 "Hg10 mi
8:53 AM45 °FSunny.5 mph63%30.35 "Hg10 mi
7:53 AM40 °FClear.7 mph77%30.33 "Hg10 mi
6:53 AM38 °FClear.8 mph76%30.31 "Hg10 mi
5:53 AM40 °FClear.8 mph70%30.29 "Hg10 mi
4:53 AM40 °FClear.8 mph77%30.27 "Hg10 mi
3:53 AM41 °FClear.8 mph76%30.26 "Hg10 mi
2:53 AM41 °FClear.9 mph80%30.25 "Hg10 mi
1:53 AM43 °FClear.8 mph76%30.26 "Hg10 mi
12:53 AM43 °FClear.8 mph76%30.24 "Hg10 mi
11:53 PM
Apr 14
45 °FClear.9 mph71%30.22 "Hg10 mi
Weather by CustomWeather, © 2014

See weather overview